GEESAT 6-08

导读

GEESAT 6-08是中国于2025年9月24日发射的卫星,属于吉利控股集团旗下GEESATCOM低轨卫星物联网星座。该次发射是吉利星座一期部署的第六次任务,完成一期建设后,在轨卫星总数达到64颗,星座可实现除两极外全球全覆盖,为各类场景提供可靠的实时物联网通信服务。

Basic Information
目录编号:
65720
目录名称:
GEESAT 6-08
国际标识:
2025-214J
轨道中心:
EARTH
卫星名称:
GEESAT 6-08
卫星全名:
GEESAT 6-08
卫星状态:
在轨 (已飞行307 天)
发射日期:
2025-09-24 UTC
国别 :
中国 (CN)
星等 :
--
Orbit Information
数据来源 国际轨道数据 AOE轨道数据
星历时间 2026-07-28T09:21:47+0800
13小时前
查看轨道信息
2026-07-28T00:00:00+0800
22小时前
查看轨道信息
半长轴 6996.517km 6996.526km
偏心率 0.0009865 0.001015
轨道倾角 49.991° 49.990°
近地点辐角 10.734° 9.434°
升交点赤经 119.070° 120.880°
平近点角 349.381° 65.732°
近地点 611.477km 611.287km
远地点 625.283km 625.491km
周期 97.069分钟 97.070分钟
每日圈数 14.834742 14.834712
Detailed Information
使用方式:
暂无
2D Orbit Map
3D Orbit Map
Orbit Altitude Analysis Chart
Orbit Inclination Analysis Chart
Orbit Comprehensive Analysis Chart
View Comprehensive Chart